Time,TemperatureF,DewpointF,PressureIn,WindDirection,WindDirectionDegrees,WindSpeedMPH,WindSpeedGustMPH,Humidity,HourlyPrecipIn,Conditions,Clouds,dailyrainin,SoftwareType,DateUTC
2013-02-25 00:02:00,0.0,-11.0,31.53,West,270,4.0,4.0,59,0.00,,,0.00,meteohub,2013-02-25 07:02:00,
2013-02-25 00:07:00,0.7,-9.9,31.53,West,270,3.0,5.0,60,0.00,,,0.00,meteohub,2013-02-25 07:07:00,
2013-02-25 00:12:00,1.2,-9.0,31.53,NW,315,3.0,5.0,61,0.00,,,0.00,meteohub,2013-02-25 07:12:00,
2013-02-25 00:17:00,1.6,-7.4,31.53,NW,315,1.0,5.0,65,0.00,,,0.00,meteohub,2013-02-25 07:17:00,
2013-02-25 00:22:00,2.1,-6.9,31.54,North,0,0.0,5.0,65,0.00,,,0.00,meteohub,2013-02-25 07:22:00,
2013-02-25 00:27:00,2.3,-6.7,31.54,North,0,2.0,3.0,65,0.00,,,0.00,meteohub,2013-02-25 07:27:00,
2013-02-25 00:32:00,2.3,-6.7,31.54,West,270,4.0,4.0,65,0.00,,,0.00,meteohub,2013-02-25 07:32:00,
2013-02-25 00:38:00,2.5,-6.5,31.54,North,0,0.0,4.0,65,0.00,,,0.00,meteohub,2013-02-25 07:38:00,
2013-02-25 00:44:00,2.5,-6.9,31.54,West,270,1.0,4.0,64,0.00,,,0.00,meteohub,2013-02-25 07:44:00,
2013-02-25 00:49:00,2.5,-6.9,31.55,SW,225,0.0,6.0,64,0.00,,,0.00,meteohub,2013-02-25 07:49:00,
2013-02-25 00:54:00,2.5,-6.9,31.55,West,270,0.0,6.0,64,0.00,,,0.00,meteohub,2013-02-25 07:54:00,
2013-02-25 00:59:00,2.7,-6.7,31.55,West,270,0.0,5.0,64,0.00,,,0.00,meteohub,2013-02-25 07:59:00,
2013-02-25 01:05:00,2.7,-6.7,31.55,West,270,2.0,4.0,64,0.00,,,0.00,meteohub,2013-02-25 08:05:00,
2013-02-25 01:10:00,2.7,-7.1,31.55,SW,225,1.0,4.0,63,0.00,,,0.00,meteohub,2013-02-25 08:10:00,
2013-02-25 01:16:00,2.7,-7.1,31.55,SW,225,0.0,2.0,63,0.00,,,0.00,meteohub,2013-02-25 08:16:00,
2013-02-25 01:22:00,2.5,-7.2,31.55,West,270,0.0,2.0,63,0.00,,,0.00,meteohub,2013-02-25 08:22:00,
2013-02-25 01:27:00,2.1,-8.0,31.55,West,270,0.0,1.0,62,0.00,,,0.00,meteohub,2013-02-25 08:27:00,
2013-02-25 01:32:00,1.8,-8.3,31.56,SW,225,0.0,2.0,62,0.00,,,0.00,meteohub,2013-02-25 08:32:00,
2013-02-25 01:37:00,1.6,-8.7,31.56,West,270,0.0,2.0,61,0.00,,,0.00,meteohub,2013-02-25 08:37:00,
2013-02-25 01:42:00,1.8,-8.3,31.56,West,270,0.0,0.0,62,0.00,,,0.00,meteohub,2013-02-25 08:42:00,
2013-02-25 01:47:00,1.9,-8.1,31.56,West,270,0.0,0.0,62,0.00,,,0.00,meteohub,2013-02-25 08:47:00,
2013-02-25 01:52:00,1.8,-8.3,31.56,West,270,0.0,0.0,62,0.00,,,0.00,meteohub,2013-02-25 08:52:00,
2013-02-25 01:57:00,1.6,-8.7,31.56,SW,225,0.0,0.0,61,0.00,,,0.00,meteohub,2013-02-25 08:57:00,
2013-02-25 02:02:00,0.9,-11.2,31.57,SW,225,0.0,0.0,56,0.00,,,0.00,meteohub,2013-02-25 09:02:00,
2013-02-25 02:07:00,0.1,-11.9,31.57,SW,225,2.0,0.0,56,0.00,,,0.00,meteohub,2013-02-25 09:07:00,
2013-02-25 02:12:00,0.0,-11.9,31.57,West,270,0.0,2.0,56,0.00,,,0.00,meteohub,2013-02-25 09:12:00,
2013-02-25 02:18:00,0.0,-11.9,31.57,West,270,0.0,3.0,56,0.00,,,0.00,meteohub,2013-02-25 09:18:00,
2013-02-25 02:23:00,0.1,-11.6,31.57,West,270,0.0,3.0,57,0.00,,,0.00,meteohub,2013-02-25 09:23:00,
2013-02-25 02:29:00,0.1,-11.6,31.57,SW,225,0.0,3.0,57,0.00,,,0.00,meteohub,2013-02-25 09:29:00,
2013-02-25 02:34:00,-0.2,-12.1,31.56,West,270,0.0,1.0,56,0.00,,,0.00,meteohub,2013-02-25 09:34:00,
2013-02-25 02:40:00,-0.2,-12.1,31.57,NW,315,0.0,1.0,56,0.00,,,0.00,meteohub,2013-02-25 09:40:00,
2013-02-25 02:45:00,-0.4,-12.3,31.57,West,270,5.0,0.0,56,0.00,,,0.00,meteohub,2013-02-25 09:45:00,
2013-02-25 02:50:00,0.1,-11.6,31.57,West,270,4.0,5.0,57,0.00,,,0.00,meteohub,2013-02-25 09:50:00,
2013-02-25 02:56:00,0.9,-10.5,31.57,NW,315,2.0,5.0,58,0.00,,,0.00,meteohub,2013-02-25 09:56:00,
2013-02-25 03:01:00,1.0,-10.3,31.57,NW,315,2.0,5.0,58,0.00,,,0.00,meteohub,2013-02-25 10:01:00,
2013-02-25 03:06:00,1.0,-10.3,31.57,NW,315,2.0,4.0,58,0.00,,,0.00,meteohub,2013-02-25 10:06:00,
2013-02-25 03:12:00,0.9,-10.8,31.57,NW,315,0.0,2.0,57,0.00,,,0.00,meteohub,2013-02-25 10:12:00,
2013-02-25 03:17:00,0.9,-10.8,31.57,NW,315,2.0,4.0,57,0.00,,,0.00,meteohub,2013-02-25 10:17:00,
2013-02-25 03:22:00,0.9,-10.8,31.57,West,270,2.0,4.0,57,0.00,,,0.00,meteohub,2013-02-25 10:22:00,
2013-02-25 03:27:00,0.7,-11.0,31.57,West,270,3.0,4.0,57,0.00,,,0.00,meteohub,2013-02-25 10:27:00,
2013-02-25 03:32:00,0.3,-11.7,31.57,West,270,3.0,3.0,56,0.00,,,0.00,meteohub,2013-02-25 10:32:00,
2013-02-25 03:37:00,0.0,-11.9,31.57,West,270,2.0,4.0,56,0.00,,,0.00,meteohub,2013-02-25 10:37:00,
2013-02-25 03:42:00,-0.4,-12.6,31.57,WNW,293,2.0,4.0,55,0.00,,,0.00,meteohub,2013-02-25 10:42:00,
2013-02-25 03:47:00,-0.8,-12.6,31.57,West,270,0.0,4.0,56,0.00,,,0.00,meteohub,2013-02-25 10:47:00,
2013-02-25 03:52:00,-0.9,-12.8,31.57,West,270,0.0,4.0,56,0.00,,,0.00,meteohub,2013-02-25 10:52:00,
2013-02-25 03:57:00,-1.1,-13.0,31.57,West,270,0.0,2.0,56,0.00,,,0.00,meteohub,2013-02-25 10:57:00,
2013-02-25 04:02:00,-1.3,-13.2,31.57,West,270,0.0,0.0,56,0.00,,,0.00,meteohub,2013-02-25 11:02:00,
2013-02-25 04:07:00,-0.9,-12.8,31.57,West,270,0.0,0.0,56,0.00,,,0.00,meteohub,2013-02-25 11:07:00,
2013-02-25 04:12:00,-0.8,-12.3,31.57,West,270,3.0,3.0,57,0.00,,,0.00,meteohub,2013-02-25 11:12:00,
2013-02-25 04:17:00,-0.4,-12.3,31.57,SW,225,3.0,3.0,56,0.00,,,0.00,meteohub,2013-02-25 11:17:00,
2013-02-25 04:22:00,-0.2,-12.1,31.58,West,270,2.0,4.0,56,0.00,,,0.00,meteohub,2013-02-25 11:22:00,
2013-02-25 04:27:00,-0.2,-12.1,31.57,West,270,2.0,4.0,56,0.00,,,0.00,meteohub,2013-02-25 11:27:00,
2013-02-25 04:32:00,-0.4,-12.3,31.58,West,270,0.0,4.0,56,0.00,,,0.00,meteohub,2013-02-25 11:32:00,
2013-02-25 04:37:00,-0.8,-12.6,31.58,West,270,0.0,4.0,56,0.00,,,0.00,meteohub,2013-02-25 11:37:00,
2013-02-25 04:42:00,-1.3,-13.2,31.58,West,270,3.0,4.0,56,0.00,,,0.00,meteohub,2013-02-25 11:42:00,
2013-02-25 04:48:00,-1.8,-14.1,31.58,West,270,2.0,3.0,55,0.00,,,0.00,meteohub,2013-02-25 11:48:00,
2013-02-25 04:54:00,-1.8,-13.7,31.58,West,270,0.0,3.0,56,0.00,,,0.00,meteohub,2013-02-25 11:54:00,
2013-02-25 04:59:00,-1.8,-13.7,31.59,West,270,3.0,3.0,56,0.00,,,0.00,meteohub,2013-02-25 11:59:00,
2013-02-25 05:04:00,-1.8,-13.7,31.59,West,270,3.0,3.0,56,0.00,,,0.00,meteohub,2013-02-25 12:04:00,
2013-02-25 05:10:00,-1.8,-13.7,31.59,West,270,3.0,3.0,56,0.00,,,0.00,meteohub,2013-02-25 12:10:00,
2013-02-25 05:15:00,-2.0,-13.9,31.59,West,270,2.0,4.0,56,0.00,,,0.00,meteohub,2013-02-25 12:15:00,
2013-02-25 05:20:00,-2.2,-14.1,31.59,NW,315,2.0,4.0,56,0.00,,,0.00,meteohub,2013-02-25 12:20:00,
2013-02-25 05:26:00,-2.0,-13.9,31.59,West,270,3.0,3.0,56,0.00,,,0.00,meteohub,2013-02-25 12:26:00,
2013-02-25 05:31:00,-2.2,-14.1,31.59,West,270,4.0,4.0,56,0.00,,,0.00,meteohub,2013-02-25 12:31:00,
2013-02-25 05:37:00,-2.4,-13.9,31.59,West,270,0.0,4.0,57,0.00,,,0.00,meteohub,2013-02-25 12:37:00,
2013-02-25 05:42:00,-2.7,-14.6,31.59,SW,225,0.0,4.0,56,0.00,,,0.00,meteohub,2013-02-25 12:42:00,
2013-02-25 05:47:00,-3.6,-15.7,31.60,SW,225,0.0,4.0,55,0.00,,,0.00,meteohub,2013-02-25 12:47:00,
2013-02-25 05:52:00,-4.0,-16.1,31.60,SW,225,0.0,1.0,55,0.00,,,0.00,meteohub,2013-02-25 12:52:00,
2013-02-25 05:57:00,-4.5,-16.2,31.60,SW,225,0.0,0.0,56,0.00,,,0.00,meteohub,2013-02-25 12:57:00,
2013-02-25 06:02:00,-5.1,-16.8,31.60,SSW,203,0.0,0.0,56,0.00,,,0.00,meteohub,2013-02-25 13:02:00,
2013-02-25 06:07:00,-5.8,-17.9,31.60,SSW,203,0.0,0.0,55,0.00,,,0.00,meteohub,2013-02-25 13:07:00,
2013-02-25 06:12:00,-6.0,-17.7,31.60,SSW,203,1.0,0.0,56,0.00,,,0.00,meteohub,2013-02-25 13:12:00,
2013-02-25 06:17:00,-5.8,-17.5,31.60,SSW,203,0.0,2.0,56,0.00,,,0.00,meteohub,2013-02-25 13:17:00,
2013-02-25 06:22:00,-5.8,-17.5,31.60,SW,225,2.0,2.0,56,0.00,,,0.00,meteohub,2013-02-25 13:22:00,
2013-02-25 06:28:00,-5.4,-17.1,31.60,SW,225,0.0,2.0,56,0.00,,,0.00,meteohub,2013-02-25 13:28:00,
2013-02-25 06:33:00,-5.4,-17.1,31.60,West,270,0.0,2.0,56,0.00,,,0.00,meteohub,2013-02-25 13:33:00,
2013-02-25 06:39:00,-5.1,-16.4,31.60,SW,225,0.0,2.0,57,0.00,,,0.00,meteohub,2013-02-25 13:39:00,
2013-02-25 06:44:00,-4.9,-16.2,31.60,West,270,0.0,0.0,57,0.00,,,0.00,meteohub,2013-02-25 13:44:00,
2013-02-25 06:50:00,-4.4,-15.3,31.60,West,270,0.0,0.0,58,0.00,,,0.00,meteohub,2013-02-25 13:50:00,
2013-02-25 06:55:00,-4.2,-15.2,31.60,West,270,0.0,0.0,58,0.00,,,0.00,meteohub,2013-02-25 13:55:00,
2013-02-25 07:00:00,-3.8,-15.2,31.60,West,270,2.0,3.0,57,0.00,,,0.00,meteohub,2013-02-25 14:00:00,
2013-02-25 07:06:00,-3.8,-15.2,31.60,West,270,2.0,3.0,57,0.00,,,0.00,meteohub,2013-02-25 14:06:00,
2013-02-25 07:12:00,-2.7,-13.9,31.60,NW,315,2.0,3.0,58,0.00,,,0.00,meteohub,2013-02-25 14:12:00,
2013-02-25 07:18:00,-2.2,-13.7,31.60,NW,315,0.0,2.0,57,0.00,,,0.00,meteohub,2013-02-25 14:18:00,
2013-02-25 07:23:00,-1.8,-13.4,31.60,West,270,0.0,2.0,57,0.00,,,0.00,meteohub,2013-02-25 14:23:00,
2013-02-25 07:29:00,-1.3,-12.8,31.60,NW,315,0.0,2.0,57,0.00,,,0.00,meteohub,2013-02-25 14:29:00,
2013-02-25 07:34:00,-1.1,-12.6,31.60,NW,315,0.0,2.0,57,0.00,,,0.00,meteohub,2013-02-25 14:34:00,
2013-02-25 07:40:00,-0.9,-12.5,31.60,West,270,0.0,2.0,57,0.00,,,0.00,meteohub,2013-02-25 14:40:00,
2013-02-25 07:46:00,0.0,-11.9,31.60,NW,315,0.0,2.0,56,0.00,,,0.00,meteohub,2013-02-25 14:46:00,
2013-02-25 07:51:00,0.7,-11.0,31.60,NW,315,4.0,4.0,57,0.00,,,0.00,meteohub,2013-02-25 14:51:00,
2013-02-25 07:56:00,1.8,-8.5,31.61,NW,315,4.0,4.0,61,0.00,,,0.00,meteohub,2013-02-25 14:56:00,
2013-02-25 08:02:00,3.0,-7.4,31.61,NW,315,3.0,4.0,61,0.00,,,0.00,meteohub,2013-02-25 15:02:00,
2013-02-25 08:07:00,3.9,-6.9,31.60,North,0,5.0,5.0,60,0.00,,,0.00,meteohub,2013-02-25 15:07:00,
2013-02-25 08:12:00,4.6,-6.5,31.61,West,270,3.0,6.0,59,0.00,,,0.00,meteohub,2013-02-25 15:12:00,
2013-02-25 08:17:00,6.1,-5.4,31.61,West,270,5.0,6.0,58,0.00,,,0.00,meteohub,2013-02-25 15:17:00,
2013-02-25 08:22:00,7.5,-4.9,31.60,NW,315,4.0,6.0,56,0.00,,,0.00,meteohub,2013-02-25 15:22:00,
2013-02-25 08:27:00,9.0,-4.4,31.60,West,270,4.0,5.0,54,0.00,,,0.00,meteohub,2013-02-25 15:27:00,
2013-02-25 08:32:00,10.2,-3.5,31.60,SW,225,4.0,5.0,53,0.00,,,0.00,meteohub,2013-02-25 15:32:00,
2013-02-25 08:38:00,11.8,-0.8,31.60,WNW,293,4.0,6.0,56,0.00,,,0.00,meteohub,2013-02-25 15:38:00,
2013-02-25 08:43:00,12.9,-0.6,31.60,West,270,6.0,6.0,54,0.00,,,0.00,meteohub,2013-02-25 15:43:00,
2013-02-25 08:49:00,14.2,-0.6,31.60,NW,315,2.0,6.0,51,0.00,,,0.00,meteohub,2013-02-25 15:49:00,
2013-02-25 08:55:00,15.3,0.0,31.60,NW,315,4.0,6.0,50,0.00,,,0.00,meteohub,2013-02-25 15:55:00,
2013-02-25 09:00:00,15.8,-0.9,31.60,SE,135,2.0,5.0,47,0.00,,,0.00,meteohub,2013-02-25 16:00:00,
2013-02-25 09:06:00,15.8,-0.9,31.60,SE,135,2.0,5.0,47,0.00,,,0.00,meteohub,2013-02-25 16:06:00,
2013-02-25 09:11:00,17.6,-1.1,31.60,West,270,4.0,4.0,43,0.00,,,0.00,meteohub,2013-02-25 16:11:00,
2013-02-25 09:17:00,18.1,-0.6,31.60,West,270,4.0,5.0,43,0.00,,,0.00,meteohub,2013-02-25 16:17:00,
2013-02-25 09:22:00,18.5,-0.8,31.59,NW,315,4.0,5.0,42,0.00,,,0.00,meteohub,2013-02-25 16:22:00,
2013-02-25 09:27:00,19.4,1.9,31.59,NE,45,2.0,5.0,46,0.00,,,0.00,meteohub,2013-02-25 16:27:00,
2013-02-25 09:32:00,20.1,2.7,31.59,SW,225,4.0,5.0,46,0.00,,,0.00,meteohub,2013-02-25 16:32:00,
2013-02-25 09:37:00,20.5,2.5,31.59,NW,315,2.0,6.0,45,0.00,,,0.00,meteohub,2013-02-25 16:37:00,
2013-02-25 09:42:00,21.2,2.7,31.59,North,0,2.0,6.0,44,0.00,,,0.00,meteohub,2013-02-25 16:42:00,
2013-02-25 09:48:00,22.5,3.4,31.58,NW,315,5.0,6.0,43,0.00,,,0.00,meteohub,2013-02-25 16:48:00,
2013-02-25 09:53:00,22.8,1.6,31.58,West,270,4.0,5.0,39,0.00,,,0.00,meteohub,2013-02-25 16:53:00,
2013-02-25 09:59:00,23.0,0.0,31.58,NW,315,3.0,5.0,36,0.00,,,0.00,meteohub,2013-02-25 16:59:00,
2013-02-25 10:04:00,23.9,1.4,31.58,NE,45,3.0,5.0,37,0.00,,,0.00,meteohub,2013-02-25 17:04:00,
2013-02-25 10:09:00,24.8,0.3,31.58,NW,315,4.0,4.0,34,0.00,,,0.00,meteohub,2013-02-25 17:09:00,
2013-02-25 10:15:00,24.4,0.7,31.58,SW,225,0.0,4.0,35,0.00,,,0.00,meteohub,2013-02-25 17:15:00,
2013-02-25 10:20:00,24.8,-0.9,31.58,NW,315,3.0,6.0,32,0.00,,,0.00,meteohub,2013-02-25 17:20:00,
2013-02-25 10:26:00,25.0,-2.7,31.58,North,0,2.0,6.0,29,0.00,,,0.00,meteohub,2013-02-25 17:26:00,
2013-02-25 10:32:00,24.6,-2.4,31.57,NW,315,4.0,6.0,30,0.00,,,0.00,meteohub,2013-02-25 17:32:00,
2013-02-25 10:37:00,24.8,-2.9,31.57,West,270,2.0,6.0,29,0.00,,,0.00,meteohub,2013-02-25 17:37:00,
2013-02-25 10:42:00,25.3,-2.6,31.57,West,270,1.0,6.0,29,0.00,,,0.00,meteohub,2013-02-25 17:42:00,
2013-02-25 10:47:00,25.9,-1.3,31.57,NW,315,2.0,5.0,30,0.00,,,0.00,meteohub,2013-02-25 17:47:00,
2013-02-25 10:52:00,26.2,-1.7,31.57,NE,45,4.0,5.0,29,0.00,,,0.00,meteohub,2013-02-25 17:52:00,
2013-02-25 10:57:00,26.8,-2.7,31.57,East,90,3.0,5.0,27,0.00,,,0.00,meteohub,2013-02-25 17:57:00,
2013-02-25 11:02:00,27.5,-1.3,31.57,South,180,0.0,4.0,28,0.00,,,0.00,meteohub,2013-02-25 18:02:00,
2013-02-25 11:08:00,27.0,-2.6,31.56,North,0,4.0,4.0,27,0.00,,,0.00,meteohub,2013-02-25 18:08:00,
2013-02-25 11:13:00,27.5,-2.2,31.56,SW,225,2.0,4.0,27,0.01,,,0.00,meteohub,2013-02-25 18:13:00,
2013-02-25 11:19:00,28.8,1.9,31.56,NE,45,2.0,4.0,31,0.02,,,0.02,meteohub,2013-02-25 18:19:00,
2013-02-25 11:24:00,28.6,1.0,31.55,West,270,3.0,4.0,30,0.02,,,0.02,meteohub,2013-02-25 18:24:00,
2013-02-25 11:30:00,29.3,1.0,31.55,East,90,3.0,5.0,29,0.02,,,0.02,meteohub,2013-02-25 18:30:00,
2013-02-25 11:35:00,29.8,1.4,31.55,NE,45,4.0,5.0,29,0.02,,,0.02,meteohub,2013-02-25 18:35:00,
2013-02-25 11:41:00,30.2,1.0,31.55,NE,45,2.0,4.0,28,0.02,,,0.02,meteohub,2013-02-25 18:41:00,
2013-02-25 11:46:00,31.6,3.0,31.55,NE,45,4.0,4.0,29,0.02,,,0.02,meteohub,2013-02-25 18:46:00,
2013-02-25 11:52:00,31.6,1.4,31.54,NE,45,1.0,4.0,27,0.02,,,0.02,meteohub,2013-02-25 18:52:00,
2013-02-25 11:57:00,32.4,1.2,31.53,North,0,4.0,4.0,26,0.04,,,0.04,meteohub,2013-02-25 18:57:00,
2013-02-25 12:02:00,32.4,0.5,31.53,SE,135,3.0,5.0,25,0.05,,,0.05,meteohub,2013-02-25 19:02:00,
2013-02-25 12:07:00,33.1,1.0,31.52,West,270,1.0,7.0,25,0.07,,,0.06,meteohub,2013-02-25 19:07:00,
2013-02-25 12:12:00,34.2,1.9,31.52,NE,45,4.0,7.0,25,0.06,,,0.07,meteohub,2013-02-25 19:12:00,
2013-02-25 12:18:00,34.0,1.8,31.52,NE,45,2.0,6.0,25,0.06,,,0.08,meteohub,2013-02-25 19:18:00,
2013-02-25 12:24:00,34.2,1.0,31.52,NE,45,2.0,6.0,24,0.06,,,0.08,meteohub,2013-02-25 19:24:00,
2013-02-25 12:29:00,34.7,1.6,31.51,SW,225,4.0,6.0,24,0.07,,,0.09,meteohub,2013-02-25 19:29:00,
2013-02-25 12:34:00,35.4,2.1,31.52,West,270,5.0,5.0,24,0.07,,,0.09,meteohub,2013-02-25 19:34:00,
2013-02-25 12:40:00,35.6,1.4,31.52,North,0,1.0,5.0,23,0.08,,,0.11,meteohub,2013-02-25 19:40:00,
2013-02-25 12:45:00,36.5,2.1,31.52,North,0,1.0,5.0,23,0.09,,,0.12,meteohub,2013-02-25 19:45:00,
2013-02-25 12:51:00,37.4,6.4,31.51,West,270,3.0,4.0,27,0.08,,,0.12,meteohub,2013-02-25 19:51:00,
2013-02-25 12:56:00,36.7,2.3,31.51,NE,45,4.0,4.0,23,0.09,,,0.13,meteohub,2013-02-25 19:56:00,
2013-02-25 13:02:00,36.0,1.8,31.51,ESE,113,0.0,5.0,23,0.07,,,0.13,meteohub,2013-02-25 20:02:00,
2013-02-25 13:07:00,36.0,1.8,31.50,ESE,113,0.0,5.0,23,0.06,,,0.13,meteohub,2013-02-25 20:07:00,
2013-02-25 13:12:00,36.5,3.2,31.51,NNE,23,4.0,5.0,24,0.06,,,0.13,meteohub,2013-02-25 20:12:00,
2013-02-25 13:17:00,35.2,2.8,31.51,NE,45,4.0,7.0,25,0.05,,,0.13,meteohub,2013-02-25 20:17:00,
2013-02-25 13:22:00,34.5,2.3,31.50,NW,315,4.0,7.0,25,0.05,,,0.13,meteohub,2013-02-25 20:22:00,
2013-02-25 13:27:00,33.8,1.8,31.50,East,90,2.0,8.0,25,0.04,,,0.13,meteohub,2013-02-25 20:27:00,
2013-02-25 13:33:00,33.4,3.7,31.51,SW,225,5.0,9.0,28,0.04,,,0.13,meteohub,2013-02-25 20:33:00,
2013-02-25 13:39:00,33.1,3.6,31.50,SE,135,4.0,9.0,28,0.02,,,0.13,meteohub,2013-02-25 20:39:00,
2013-02-25 13:44:00,32.5,3.7,31.50,North,0,7.0,9.0,29,0.01,,,0.13,meteohub,2013-02-25 20:44:00,
2013-02-25 13:50:00,32.0,3.4,31.50,North,0,7.0,8.0,29,0.01,,,0.13,meteohub,2013-02-25 20:50:00,
2013-02-25 13:55:00,31.6,4.5,31.50,West,270,4.0,7.0,31,0.00,,,0.13,meteohub,2013-02-25 20:55:00,
2013-02-25 14:00:00,31.5,4.3,31.50,NE,45,4.0,8.0,31,0.00,,,0.13,meteohub,2013-02-25 21:00:00,
2013-02-25 14:06:00,31.3,4.8,31.50,NW,315,3.0,8.0,32,0.00,,,0.13,meteohub,2013-02-25 21:06:00,
2013-02-25 14:12:00,31.8,5.9,31.49,NE,45,4.0,8.0,33,0.00,,,0.13,meteohub,2013-02-25 21:12:00,
2013-02-25 14:17:00,32.2,4.3,31.49,NNE,23,4.0,8.0,30,0.00,,,0.13,meteohub,2013-02-25 21:17:00,
2013-02-25 14:22:00,32.5,5.2,31.49,West,270,8.0,8.0,31,0.00,,,0.13,meteohub,2013-02-25 21:22:00,
2013-02-25 14:27:00,33.1,5.0,31.49,NE,45,4.0,8.0,30,0.00,,,0.13,meteohub,2013-02-25 21:27:00,
2013-02-25 14:32:00,33.4,4.6,31.49,North,0,6.0,9.0,29,0.00,,,0.13,meteohub,2013-02-25 21:32:00,
2013-02-25 14:37:00,33.6,4.8,31.49,NE,45,4.0,9.0,29,0.00,,,0.13,meteohub,2013-02-25 21:37:00,
2013-02-25 14:42:00,34.0,3.6,31.49,NW,315,5.0,8.0,27,0.00,,,0.13,meteohub,2013-02-25 21:42:00,
2013-02-25 14:47:00,34.3,3.0,31.49,ENE,68,4.0,6.0,26,0.00,,,0.13,meteohub,2013-02-25 21:47:00,
2013-02-25 14:52:00,34.5,3.2,31.49,NE,45,3.0,8.0,26,0.00,,,0.13,meteohub,2013-02-25 21:52:00,
2013-02-25 14:57:00,34.7,3.4,31.49,NE,45,3.0,8.0,26,0.00,,,0.13,meteohub,2013-02-25 21:57:00,
2013-02-25 15:02:00,34.9,3.4,31.49,North,0,9.0,9.0,26,0.00,,,0.13,meteohub,2013-02-25 22:02:00,
2013-02-25 15:07:00,35.2,2.8,31.49,NE,45,5.0,9.0,25,0.01,,,0.14,meteohub,2013-02-25 22:07:00,
2013-02-25 15:13:00,35.1,2.8,31.49,NW,315,4.0,9.0,25,0.01,,,0.14,meteohub,2013-02-25 22:13:00,
2013-02-25 15:19:00,35.2,2.8,31.49,North,0,4.0,12.0,25,0.01,,,0.14,meteohub,2013-02-25 22:19:00,
2013-02-25 15:24:00,35.1,2.8,31.49,NNW,338,7.0,12.0,25,0.01,,,0.14,meteohub,2013-02-25 22:24:00,
2013-02-25 15:30:00,34.3,2.1,31.49,NNE,23,4.0,8.0,25,0.01,,,0.14,meteohub,2013-02-25 22:30:00,
2013-02-25 15:35:00,34.0,1.8,31.49,NE,45,4.0,8.0,25,0.01,,,0.14,meteohub,2013-02-25 22:35:00,
2013-02-25 15:41:00,33.4,2.3,31.48,SW,225,6.0,11.0,26,0.01,,,0.14,meteohub,2013-02-25 22:41:00,
2013-02-25 15:47:00,32.9,1.8,31.49,North,0,6.0,11.0,26,0.01,,,0.14,meteohub,2013-02-25 22:47:00,
2013-02-25 15:52:00,31.5,1.4,31.49,NE,45,4.0,11.0,27,0.01,,,0.14,meteohub,2013-02-25 22:52:00,
2013-02-25 15:57:00,30.6,0.5,31.49,West,270,5.0,7.0,27,0.01,,,0.14,meteohub,2013-02-25 22:57:00,
2013-02-25 16:02:00,29.8,0.7,31.49,NW,315,2.0,7.0,28,0.00,,,0.14,meteohub,2013-02-25 23:02:00,
2013-02-25 16:07:00,29.1,0.1,31.49,NW,315,3.0,7.0,28,0.00,,,0.14,meteohub,2013-02-25 23:07:00,
2013-02-25 16:12:00,28.8,-0.2,31.49,NE,45,2.0,7.0,28,0.00,,,0.14,meteohub,2013-02-25 23:12:00,
2013-02-25 16:18:00,28.8,-0.2,31.49,SW,225,4.0,7.0,28,0.00,,,0.14,meteohub,2013-02-25 23:18:00,
2013-02-25 16:23:00,28.6,-0.4,31.49,North,0,3.0,7.0,28,0.00,,,0.14,meteohub,2013-02-25 23:23:00,
2013-02-25 16:28:00,28.0,-4.2,31.49,NW,315,6.0,7.0,24,0.00,,,0.14,meteohub,2013-02-25 23:28:00,
2013-02-25 16:33:00,27.7,-3.6,31.49,NW,315,4.0,8.0,25,0.00,,,0.14,meteohub,2013-02-25 23:33:00,
2013-02-25 16:39:00,27.3,-3.8,31.49,ENE,68,2.0,8.0,25,0.00,,,0.14,meteohub,2013-02-25 23:39:00,
2013-02-25 16:44:00,27.0,-4.2,31.49,West,270,3.0,8.0,25,0.00,,,0.14,meteohub,2013-02-25 23:44:00,
2013-02-25 16:49:00,26.8,-3.5,31.49,West,270,3.0,7.0,26,0.00,,,0.14,meteohub,2013-02-25 23:49:00,
2013-02-25 16:55:00,26.6,-3.6,31.49,NNW,338,3.0,7.0,26,0.00,,,0.14,meteohub,2013-02-25 23:55:00,
2013-02-25 17:01:00,26.2,-4.0,31.50,NW,315,4.0,7.0,26,0.00,,,0.14,meteohub,2013-02-26 00:01:00,
2013-02-25 17:06:00,26.2,-4.0,31.49,NW,315,4.0,6.0,26,0.00,,,0.00,meteohub,2013-02-26 00:06:00,
2013-02-25 17:12:00,25.0,-4.4,31.49,West,270,3.0,5.0,27,0.00,,,0.00,meteohub,2013-02-26 00:12:00,
2013-02-25 17:17:00,24.4,-3.3,31.49,North,0,4.0,5.0,29,0.00,,,0.00,meteohub,2013-02-26 00:17:00,
2013-02-25 17:22:00,23.9,-3.8,31.50,NW,315,3.0,5.0,29,0.00,,,0.00,meteohub,2013-02-26 00:22:00,
2013-02-25 17:27:00,23.4,-2.7,31.50,West,270,4.0,7.0,31,0.00,,,0.00,meteohub,2013-02-26 00:27:00,
2013-02-25 17:32:00,23.0,-1.8,31.50,NW,315,2.0,7.0,33,0.00,,,0.00,meteohub,2013-02-26 00:32:00,
2013-02-25 17:37:00,22.5,-1.7,31.50,West,270,2.0,7.0,34,0.00,,,0.00,meteohub,2013-02-26 00:37:00,
2013-02-25 17:42:00,22.1,-2.0,31.50,SW,225,2.0,4.0,34,0.00,,,0.00,meteohub,2013-02-26 00:42:00,
2013-02-25 17:47:00,21.6,-2.6,31.50,North,0,1.0,4.0,34,0.00,,,0.00,meteohub,2013-02-26 00:47:00,
2013-02-25 17:52:00,21.2,-2.7,31.50,South,180,2.0,5.0,34,0.00,,,0.00,meteohub,2013-02-26 00:52:00,
2013-02-25 17:57:00,20.5,-2.2,31.50,WSW,248,1.0,5.0,36,0.00,,,0.00,meteohub,2013-02-26 00:57:00,
2013-02-25 18:02:00,19.9,-2.2,31.50,SW,225,0.0,5.0,37,0.00,,,0.00,meteohub,2013-02-26 01:02:00,
2013-02-25 18:07:00,19.8,-2.4,31.50,SW,225,0.0,2.0,37,0.00,,,0.00,meteohub,2013-02-26 01:07:00,
2013-02-25 18:13:00,19.2,-4.5,31.50,NW,315,0.0,2.0,34,0.00,,,0.00,meteohub,2013-02-26 01:13:00,
2013-02-25 18:18:00,18.7,-5.1,31.51,West,270,2.0,2.0,34,0.00,,,0.00,meteohub,2013-02-26 01:18:00,
2013-02-25 18:24:00,18.3,-4.2,31.51,West,270,0.0,2.0,36,0.00,,,0.00,meteohub,2013-02-26 01:24:00,
2013-02-25 18:29:00,18.0,-3.5,31.50,NW,315,0.0,3.0,38,0.00,,,0.00,meteohub,2013-02-26 01:29:00,
2013-02-25 18:34:00,17.6,-3.1,31.50,West,270,3.0,3.0,39,0.00,,,0.00,meteohub,2013-02-26 01:34:00,
2013-02-25 18:39:00,17.2,-1.8,31.50,SW,225,0.0,2.0,42,0.00,,,0.00,meteohub,2013-02-26 01:39:00,
2013-02-25 18:45:00,16.7,-2.4,31.50,West,270,0.0,3.0,42,0.00,,,0.00,meteohub,2013-02-26 01:45:00,
2013-02-25 18:50:00,16.3,-2.7,31.50,West,270,1.0,1.0,42,0.00,,,0.00,meteohub,2013-02-26 01:50:00,
2013-02-25 18:56:00,15.8,-2.7,31.51,West,270,0.0,1.0,43,0.00,,,0.00,meteohub,2013-02-26 01:56:00,
2013-02-25 19:01:00,15.4,-2.2,31.51,SW,225,0.0,1.0,45,0.00,,,0.00,meteohub,2013-02-26 02:01:00,
2013-02-25 19:06:00,15.4,-2.2,31.50,SW,225,0.0,1.0,45,0.00,,,0.00,meteohub,2013-02-26 02:06:00,
2013-02-25 19:12:00,14.4,-2.6,31.50,West,270,0.0,4.0,46,0.00,,,0.00,meteohub,2013-02-26 02:12:00,
2013-02-25 19:17:00,14.7,-2.4,31.51,West,270,2.0,4.0,46,0.00,,,0.00,meteohub,2013-02-26 02:17:00,
2013-02-25 19:22:00,15.1,-2.0,31.51,North,0,2.0,4.0,46,0.00,,,0.00,meteohub,2013-02-26 02:22:00,
2013-02-25 19:27:00,15.3,-1.8,31.51,West,270,0.0,4.0,46,0.00,,,0.00,meteohub,2013-02-26 02:27:00,
2013-02-25 19:32:00,15.1,-2.4,31.50,NW,315,0.0,4.0,45,0.00,,,0.00,meteohub,2013-02-26 02:32:00,
2013-02-25 19:37:00,14.9,-2.6,31.50,SW,225,0.0,4.0,45,0.00,,,0.00,meteohub,2013-02-26 02:37:00,
2013-02-25 19:42:00,14.5,-2.9,31.51,West,270,1.0,2.0,45,0.00,,,0.00,meteohub,2013-02-26 02:42:00,
2013-02-25 19:47:00,14.4,-3.1,31.51,West,270,0.0,2.0,45,0.00,,,0.00,meteohub,2013-02-26 02:47:00,
2013-02-25 19:52:00,14.2,-3.3,31.51,SW,225,4.0,4.0,45,0.00,,,0.00,meteohub,2013-02-26 02:52:00,
2013-02-25 19:57:00,14.2,-3.3,31.51,NW,315,2.0,4.0,45,0.00,,,0.00,meteohub,2013-02-26 02:57:00,
2013-02-25 20:02:00,14.0,-3.5,31.51,NW,315,0.0,4.0,45,0.00,,,0.00,meteohub,2013-02-26 03:02:00,
2013-02-25 20:07:00,13.8,-3.1,31.52,WSW,248,2.0,4.0,46,0.00,,,0.00,meteohub,2013-02-26 03:07:00,
2013-02-25 20:12:00,13.8,-3.1,31.52,North,0,0.0,4.0,46,0.00,,,0.00,meteohub,2013-02-26 03:12:00,
2013-02-25 20:17:00,13.5,-4.0,31.52,SW,225,2.0,2.0,45,0.00,,,0.00,meteohub,2013-02-26 03:17:00,
2013-02-25 20:22:00,13.3,-4.2,31.52,West,270,2.0,4.0,45,0.00,,,0.00,meteohub,2013-02-26 03:22:00,
2013-02-25 20:27:00,13.3,-3.6,31.51,WSW,248,5.0,5.0,46,0.00,,,0.00,meteohub,2013-02-26 03:27:00,
2013-02-25 20:32:00,13.3,-3.6,31.51,NW,315,2.0,6.0,46,0.00,,,0.00,meteohub,2013-02-26 03:32:00,
2013-02-25 20:37:00,13.1,-3.8,31.51,West,270,4.0,6.0,46,0.00,,,0.00,meteohub,2013-02-26 03:37:00,
2013-02-25 20:42:00,12.9,-4.0,31.51,West,270,6.0,6.0,46,0.00,,,0.00,meteohub,2013-02-26 03:42:00,
2013-02-25 20:47:00,12.7,-3.6,31.51,NW,315,5.0,8.0,47,0.00,,,0.00,meteohub,2013-02-26 03:47:00,
2013-02-25 20:52:00,12.9,-3.5,31.51,WSW,248,2.0,8.0,47,0.00,,,0.00,meteohub,2013-02-26 03:52:00,
2013-02-25 20:57:00,12.9,-3.5,31.51,NW,315,4.0,8.0,47,0.00,,,0.00,meteohub,2013-02-26 03:57:00,
2013-02-25 21:02:00,13.1,-3.3,31.51,NW,315,5.0,5.0,47,0.00,,,0.00,meteohub,2013-02-26 04:02:00,
2013-02-25 21:07:00,13.1,-3.3,31.51,NW,315,5.0,5.0,47,0.00,,,0.00,meteohub,2013-02-26 04:07:00,
2013-02-25 21:12:00,13.5,-3.1,31.51,SW,225,4.0,5.0,47,0.00,,,0.00,meteohub,2013-02-26 04:12:00,
2013-02-25 21:17:00,13.6,-2.9,31.51,SW,225,0.0,5.0,47,0.00,,,0.00,meteohub,2013-02-26 04:17:00,
2013-02-25 21:22:00,13.8,-2.7,31.51,West,270,1.0,5.0,47,0.00,,,0.00,meteohub,2013-02-26 04:22:00,
2013-02-25 21:27:00,14.0,-2.9,31.51,West,270,0.0,4.0,46,0.00,,,0.00,meteohub,2013-02-26 04:27:00,
2013-02-25 21:33:00,14.0,-3.5,31.50,WNW,293,3.0,4.0,45,0.00,,,0.00,meteohub,2013-02-26 04:33:00,
2013-02-25 21:38:00,13.6,-3.3,31.50,NW,315,0.0,3.0,46,0.00,,,0.00,meteohub,2013-02-26 04:38:00,
2013-02-25 21:43:00,13.5,-3.5,31.50,NE,45,0.0,3.0,46,0.00,,,0.00,meteohub,2013-02-26 04:43:00,
2013-02-25 21:49:00,13.1,-3.8,31.49,NE,45,0.0,3.0,46,0.00,,,0.00,meteohub,2013-02-26 04:49:00,
2013-02-25 21:54:00,12.7,-4.2,31.49,North,0,0.0,2.0,46,0.00,,,0.00,meteohub,2013-02-26 04:54:00,
2013-02-25 22:00:00,12.2,-4.2,31.49,West,270,0.0,2.0,47,0.00,,,0.00,meteohub,2013-02-26 05:00:00,
2013-02-25 22:01:00,12.2,-4.2,31.49,West,270,0.0,2.0,47,0.00,,,0.00,meteohub,2013-02-26 05:01:00,
2013-02-25 22:02:00,12.2,-4.2,31.49,West,270,0.0,2.0,47,0.00,,,0.00,meteohub,2013-02-26 05:02:00,
2013-02-25 22:05:00,11.8,-4.0,31.50,SW,225,0.0,1.0,48,0.00,,,0.00,meteohub,2013-02-26 05:05:00,
2013-02-25 22:11:00,11.3,-4.5,31.50,West,270,0.0,1.0,48,0.00,,,0.00,meteohub,2013-02-26 05:11:00,
2013-02-25 22:17:00,10.9,-4.9,31.49,NE,45,0.0,0.0,48,0.00,,,0.00,meteohub,2013-02-26 05:17:00,
2013-02-25 22:22:00,10.6,-4.9,31.49,South,180,0.0,0.0,49,0.00,,,0.00,meteohub,2013-02-26 05:22:00,
2013-02-25 22:27:00,9.9,-7.2,31.49,SW,225,0.0,0.0,45,0.00,,,0.00,meteohub,2013-02-26 05:27:00,
2013-02-25 22:32:00,9.1,-8.0,31.49,North,0,0.0,0.0,45,0.00,,,0.00,meteohub,2013-02-26 05:32:00,
2013-02-25 22:38:00,8.4,-8.1,31.49,SW,225,0.0,2.0,46,0.00,,,0.00,meteohub,2013-02-26 05:38:00,
2013-02-25 22:43:00,7.9,-8.7,31.49,SW,225,0.0,2.0,46,0.00,,,0.00,meteohub,2013-02-26 05:43:00,
2013-02-25 22:49:00,7.3,-8.7,31.48,SW,225,0.0,2.0,47,0.00,,,0.00,meteohub,2013-02-26 05:49:00,
2013-02-25 22:54:00,7.3,-8.3,31.48,NW,315,0.0,1.0,48,0.00,,,0.00,meteohub,2013-02-26 05:54:00,
2013-02-25 23:00:00,7.3,-7.8,31.47,South,180,0.0,1.0,49,0.00,,,0.00,meteohub,2013-02-26 06:00:00,
2013-02-25 23:05:00,7.3,-7.8,31.47,South,180,0.0,0.0,49,0.00,,,0.00,meteohub,2013-02-26 06:05:00,
2013-02-25 23:11:00,7.3,-7.8,31.47,SW,225,0.0,0.0,49,0.00,,,0.00,meteohub,2013-02-26 06:11:00,
2013-02-25 23:16:00,7.2,-7.6,31.48,West,270,2.0,0.0,50,0.00,,,0.00,meteohub,2013-02-26 06:16:00,
2013-02-25 23:22:00,7.2,-7.6,31.48,West,270,0.0,2.0,50,0.00,,,0.00,meteohub,2013-02-26 06:22:00,
2013-02-25 23:27:00,7.2,-7.6,31.48,East,90,0.0,2.0,50,0.00,,,0.00,meteohub,2013-02-26 06:27:00,
2013-02-25 23:32:00,7.2,-7.6,31.48,South,180,0.0,2.0,50,0.00,,,0.00,meteohub,2013-02-26 06:32:00,
2013-02-25 23:37:00,7.2,-7.6,31.48,NE,45,0.0,1.0,50,0.00,,,0.00,meteohub,2013-02-26 06:37:00,
2013-02-25 23:42:00,7.2,-7.2,31.48,NW,315,0.0,1.0,51,0.00,,,0.00,meteohub,2013-02-26 06:42:00,
2013-02-25 23:47:00,7.3,-7.1,31.47,South,180,0.0,1.0,51,0.00,,,0.00,meteohub,2013-02-26 06:47:00,
2013-02-25 23:52:00,7.2,-7.2,31.47,South,180,0.0,1.0,51,0.00,,,0.00,meteohub,2013-02-26 06:52:00,
2013-02-25 23:57:00,7.0,-7.4,31.47,South,180,0.0,0.0,51,0.00,,,0.00,meteohub,2013-02-26 06:57:00,